Date,TemperatureHighF,TemperatureAvgF,TemperatureLowF,DewpointHighF,DewpointAvgF,DewpointLowF,HumidityHigh,HumidityAvg,HumidityLow,PressureMaxIn,PressureMinIn,WindSpeedMaxMPH,WindSpeedAvgMPH,GustSpeedMaxMPH,PrecipitationSumIn
2013-1-1,34.3,32.0,32.0,27.8,23.8,19.7,82,71,60,30.06,29.86,16,5,16,0.00
2013-1-2,32.0,32.0,32.0,29.4,27.6,24.0,90,84,72,30.24,30.04,21,5,21,0.00
2013-1-3,32.0,32.0,32.0,29.1,27.2,26.2,89,82,79,30.18,30.09,9,5,9,0.00
2013-1-4,33.2,32.4,32.0,25.6,24.6,23.1,75,72,70,30.03,29.91,29,13,29,0.00
2013-1-5,34.3,33.6,32.1,25.1,25.0,24.7,75,70,68,30.21,30.03,13,1,13,0.00
2013-1-6,38.1,36.1,34.7,32.4,31.6,30.3,89,84,75,30.08,29.89,15,6,15,0.00
2013-1-7,35.4,33.0,32.0,31.8,26.9,22.3,89,78,67,30.42,30.09,12,3,12,0.00
2013-1-8,40.3,35.1,32.1,29.0,26.4,22.4,88,71,58,30.34,30.20,13,2,13,0.00
2013-1-9,41.1,40.6,40.2,32.3,29.5,27.2,71,64,59,30.33,30.11,21,12,21,0.00
2013-1-10,41.7,36.3,32.0,31.7,29.5,27.7,88,77,60,30.56,30.33,18,2,18,0.00
2013-1-11,44.5,42.4,40.1,40.6,38.8,36.8,90,87,86,29.97,29.94,7,3,7,0.00
2013-1-12,57.4,53.8,43.6,49.9,48.0,40.3,88,81,75,30.00,29.95,10,3,10,0.00
2013-1-13,50.8,50.7,50.5,46.8,46.5,45.6,86,86,85,29.98,29.98,4,4,4,0.00
2013-1-14,34.1,32.5,32.1,25.7,23.3,21.7,73,68,64,30.40,30.27,26,5,26,0.00
2013-1-15,34.4,32.3,32.0,26.6,23.5,18.5,80,70,55,30.42,30.21,10,2,10,0.00
2013-1-16,38.7,35.3,32.1,29.9,27.0,23.2,82,72,61,30.21,29.79,17,6,17,0.00
2013-1-17,36.7,36.6,36.6,31.9,28.7,24.8,83,73,62,30.21,29.84,13,3,13,0.00
2013-1-18,36.6,34.3,32.5,29.4,20.8,16.7,75,58,45,30.45,30.06,21,6,21,0.00
2013-1-19,47.7,38.6,32.5,26.3,20.8,16.8,53,49,43,30.06,29.59,26,10,26,0.00
2013-1-20,47.9,32.4,32.0,26.6,21.0,14.6,80,63,42,30.08,29.59,34,15,34,0.01
2013-2-1,32.1,20.2,18.4,23.1,12.2,7.8,83,71,54,30.20,30.04,32,9,32,0.00
2013-2-2,20.1,16.8,12.3,14.2,12.1,7.5,89,82,62,30.19,30.00,16,1,16,0.00
2013-2-3,22.5,20.7,12.0,16.5,14.5,9.4,90,77,71,30.00,29.82,15,5,15,0.00
2013-2-4,32.1,26.7,18.1,23.1,16.5,10.9,79,65,55,29.96,29.87,34,5,34,0.00
2013-2-5,25.7,23.1,17.6,18.3,15.3,10.9,84,72,59,30.00,29.87,9,2,9,0.00
2013-2-6,25.2,20.0,14.0,18.6,10.5,6.4,85,67,50,30.41,29.89,19,3,19,0.00
2013-2-7,31.1,27.2,14.7,22.3,16.5,11.0,87,64,56,30.43,30.12,15,6,15,0.00
2013-2-8,31.3,23.0,18.3,26.3,21.0,16.4,95,92,63,30.12,29.80,15,2,15,0.00
2013-2-9,21.4,17.3,11.9,16.5,13.7,9.3,92,86,80,30.44,30.38,0,0,0,0.00
2013-2-10,33.7,31.3,11.8,25.0,22.2,9.0,90,69,64,30.44,29.99,14,5,14,0.01
2013-2-11,52.4,38.7,33.6,41.3,30.2,25.0,85,71,64,30.00,29.56,33,17,33,0.08
2013-2-12,35.5,33.6,31.5,29.4,25.7,23.3,84,73,63,29.97,29.70,28,10,28,0.00
2013-2-21,21.1,19.6,18.2,16.0,14.5,12.5,81,80,78,30.43,30.33,29,5,29,0.00
2013-2-22,34.6,30.6,21.1,27.7,24.0,12.2,91,76,68,30.25,30.03,9,3,13,0.00
2013-2-23,40.7,34.7,31.8,33.1,29.1,24.1,91,80,73,30.04,29.88,6,2,12,0.10
2013-2-24,33.5,31.5,30.3,27.8,25.2,22.8,87,77,67,30.07,29.86,9,4,17,0.00
2013-2-25,36.3,32.9,27.1,29.2,27.4,24.8,91,80,64,30.25,30.07,7,2,12,0.00
2013-2-26,42.9,34.2,24.5,31.7,27.1,22.4,94,77,54,30.25,29.87,9,3,21,0.04
2013-2-27,36.9,33.5,32.3,34.4,31.8,30.5,96,93,89,29.86,29.58,8,2,15,0.78
2013-2-28,37.7,34.5,32.4,32.8,31.9,30.9,96,90,78,29.73,29.55,7,2,13,0.49
2013-3-1,33.6,30.4,27.4,32.1,25.9,21.5,94,83,76,29.93,29.73,9,2,14,0.02
2013-3-2,27.4,24.7,22.7,22.9,20.3,17.5,89,83,74,29.96,29.88,8,2,12,0.00
2013-3-3,24.9,22.8,21.1,18.9,17.7,15.2,88,80,67,29.91,29.87,8,2,14,0.00
2013-3-4,30.4,28.0,25.0,22.3,20.0,17.3,79,72,65,30.06,29.96,13,5,20,0.00
2013-3-5,33.5,27.4,22.6,24.6,21.7,19.7,91,79,65,30.12,30.00,7,2,12,0.06
2013-3-6,40.4,32.4,21.8,32.6,27.7,18.5,91,83,67,30.16,29.99,6,2,13,0.05
2013-3-7,37.4,34.0,31.3,32.9,29.3,23.4,94,83,67,30.29,30.14,6,1,9,0.00
2013-3-8,40.5,33.3,25.8,26.4,24.0,21.9,89,69,49,30.40,30.27,7,1,13,0.00
2013-3-9,46.3,34.6,23.1,33.3,26.8,21.4,95,74,52,30.43,30.25,5,1,8,0.00
2013-3-10,63.5,49.8,34.5,31.5,27.6,23.8,70,44,27,30.25,29.98,6,2,12,0.00
2013-3-11,55.7,52.3,48.4,44.5,32.5,28.3,66,47,41,29.99,29.67,10,3,20,0.00
2013-3-12,55.7,41.1,35.3,47.2,34.5,27.8,93,77,66,29.91,29.67,12,5,20,0.24
2013-3-13,38.7,33.0,24.0,31.1,24.9,18.0,87,72,56,29.94,29.82,15,5,22,0.00
2013-3-14,32.4,25.6,19.1,18.6,12.6,6.7,83,59,35,30.07,29.94,16,6,27,0.00
2013-3-15,38.7,31.5,24.7,30.7,23.6,14.4,92,73,57,30.06,29.72,14,4,25,0.03
2013-3-16,30.1,25.2,17.0,20.6,17.3,13.9,88,72,61,30.00,29.87,8,2,12,0.00
2013-3-17,28.9,21.1,17.8,15.5,11.2,8.9,74,65,54,30.37,30.27,6,1,12,0.02
2013-3-18,33.4,24.6,15.6,28.7,16.7,9.9,91,73,43,30.37,29.76,18,3,21,0.00
2013-3-19,37.4,32.5,26.4,33.0,26.6,19.3,91,79,57,29.83,29.70,16,4,25,0.13
2013-3-20,34.4,28.0,24.0,24.3,19.8,14.2,86,72,46,29.84,29.79,15,5,22,0.00
2013-3-21,31.1,26.3,20.5,24.9,17.8,12.5,90,71,47,29.83,29.72,10,4,21,0.00
2013-3-22,32.8,29.0,25.4,26.5,24.2,20.6,93,82,70,29.92,29.74,11,4,18,0.00
2013-3-23,37.7,33.0,29.2,26.7,24.8,21.6,89,72,55,30.01,29.90,11,4,20,0.03
2013-3-24,37.9,32.7,25.7,27.9,24.1,20.4,91,71,52,30.01,29.76,9,2,13,0.00
2013-3-25,40.1,34.9,29.7,30.2,26.8,23.6,92,72,58,29.75,29.63,10,3,14,0.00
2013-3-26,43.4,37.2,28.6,33.9,29.1,25.8,91,73,52,29.94,29.73,6,1,12,0.00
2013-3-27,45.4,37.4,32.8,34.7,30.3,26.5,94,76,54,30.05,29.92,12,4,20,0.04
2013-3-28,44.3,38.7,33.7,35.2,31.8,25.6,91,77,49,30.20,30.04,6,3,12,0.00
2013-3-29,48.9,41.6,36.9,35.1,31.8,27.0,84,69,44,30.20,30.12,7,3,14,0.00
2013-3-30,49.2,39.7,28.6,32.5,25.9,17.1,86,60,31,30.21,30.06,6,2,10,0.00
2013-3-31,58.8,45.3,37.1,42.8,32.0,23.4,90,62,34,30.06,29.62,10,2,17,0.05
2013-4-1,45.0,36.2,27.8,40.5,26.4,13.4,93,69,40,29.95,29.56,17,5,25,0.04
2013-4-2,33.9,28.7,23.3,27.0,20.5,15.9,91,72,50,30.11,29.94,15,6,22,0.00
2013-4-3,37.2,31.0,27.0,22.9,17.8,12.4,79,59,37,30.38,30.11,12,5,25,0.00
2013-4-4,56.7,37.2,24.3,24.4,19.8,15.5,76,53,21,30.36,29.91,11,2,17,0.00
2013-4-5,42.2,37.7,30.7,31.5,24.9,16.9,74,60,42,30.16,29.88,10,3,18,0.00
2013-4-6,46.5,35.9,24.3,24.5,18.8,13.2,76,51,30,30.34,30.06,9,2,13,0.00
2013-4-7,70.8,54.1,43.3,45.9,32.2,19.3,70,44,32,30.06,29.69,16,5,28,0.00
2013-4-8,54.8,45.3,40.0,45.1,36.5,33.1,91,72,52,30.13,29.75,9,2,15,0.06
2013-4-9,56.9,48.8,42.7,50.4,43.4,39.9,95,82,65,30.11,29.73,14,3,23,0.70
2013-4-10,46.1,41.6,38.5,44.7,40.1,36.9,96,95,89,30.10,29.89,9,2,13,0.63
2013-4-11,38.8,34.3,31.6,37.2,30.9,25.4,95,87,66,30.16,29.97,11,4,17,0.34
2013-4-12,51.4,40.9,33.9,47.2,37.1,30.7,95,87,69,29.99,29.55,15,6,22,0.77
2013-4-13,46.7,42.5,39.6,37.4,34.0,29.9,82,72,56,29.94,29.77,16,6,25,0.00
2013-4-14,44.9,39.1,34.6,33.6,28.9,24.9,87,67,50,30.22,29.94,15,3,20,0.00
2013-4-15,74.8,55.0,34.6,49.6,38.8,24.8,71,56,37,30.21,30.00,10,3,17,0.00
2013-4-16,65.6,56.9,44.0,58.0,48.7,33.1,95,75,63,30.24,29.95,14,3,20,0.18
2013-4-17,53.3,44.8,33.1,39.5,33.4,29.1,91,65,44,30.37,30.23,9,2,13,0.00
2013-4-18,78.4,61.4,41.9,58.0,48.2,32.1,75,63,46,30.26,29.70,11,4,20,0.00
2013-4-19,73.9,59.5,42.1,59.9,49.3,30.6,85,69,60,29.76,29.34,17,6,30,0.06
2013-4-20,43.1,38.6,33.3,33.5,26.6,19.3,88,62,49,30.42,29.73,16,7,25,0.01
2013-4-21,41.2,35.5,28.3,26.8,21.1,10.3,72,57,33,30.70,30.42,6,2,12,0.00
2013-4-22,58.7,46.3,31.0,31.3,25.5,19.8,66,46,29,30.63,30.35,12,2,18,0.00
2013-4-23,61.9,51.6,39.5,40.0,34.0,27.0,71,52,40,30.36,29.95,10,3,16,0.00
2013-4-24,68.7,55.9,39.5,54.8,43.3,33.5,84,63,50,29.98,29.56,20,3,27,0.13
2013-4-25,57.1,44.5,36.1,39.1,32.6,24.5,91,66,31,30.31,29.98,12,3,18,0.09
2013-4-26,51.1,44.2,37.2,39.6,33.4,27.0,93,68,42,30.48,30.31,7,2,12,0.05
2013-4-27,65.7,51.8,35.5,43.0,34.5,29.6,80,54,32,30.45,30.23,7,1,10,0.00
2013-4-28,75.1,61.3,51.2,48.8,39.8,34.6,85,48,24,30.23,30.02,11,3,21,0.06
2013-4-29,65.7,57.9,50.3,52.8,49.3,46.1,88,74,58,30.05,29.98,7,2,13,0.06
2013-4-30,75.3,63.4,55.5,56.3,52.7,50.2,89,70,47,30.21,30.04,7,2,15,0.02
2013-5-1,78.5,66.5,58.1,51.5,44.1,32.6,74,49,22,30.33,30.21,9,2,16,0.00
2013-5-2,75.7,64.1,49.6,48.2,39.3,31.3,63,41,21,30.40,30.25,7,1,13,0.00
2013-5-3,77.1,65.4,51.4,51.3,43.7,37.8,68,47,31,30.30,30.20,9,2,15,0.00
2013-5-4,75.0,62.9,48.6,48.1,41.8,36.5,72,47,32,30.28,30.14,10,1,14,0.00
2013-5-5,73.3,61.3,46.3,51.2,44.2,38.6,83,56,37,30.19,30.08,6,1,9,0.00
2013-5-6,73.8,61.6,49.8,48.2,40.0,33.7,76,46,25,30.16,30.01,5,1,8,0.00
2013-5-7,74.8,64.9,52.4,59.1,51.2,42.6,86,62,48,30.11,30.00,6,1,10,0.00
2013-5-8,71.8,63.3,56.0,60.7,55.5,48.2,95,76,61,30.05,29.91,7,1,13,0.03
2013-5-9,67.0,60.5,56.7,61.0,57.1,54.8,96,89,76,29.94,29.85,4,0,7,0.11
2013-5-10,74.6,62.1,52.8,63.0,56.8,50.9,95,84,62,29.94,29.71,10,1,17,0.38
2013-5-11,59.4,54.4,46.7,58.0,50.0,43.6,95,85,68,29.77,29.64,10,3,16,0.10
2013-5-12,50.7,44.8,38.8,46.0,36.0,29.9,93,72,46,29.91,29.67,16,5,25,0.03
2013-5-13,50.7,42.5,37.0,34.9,32.2,29.3,80,67,47,30.12,29.91,12,4,20,0.00
2013-5-14,57.6,45.8,31.3,39.4,33.7,29.0,95,65,35,30.17,29.97,5,1,9,0.00
2013-5-15,80.3,66.5,47.9,61.5,49.9,41.6,86,57,41,29.77,29.50,15,4,25,0.07
2013-5-16,75.1,62.9,50.0,49.7,43.6,35.3,82,52,26,29.99,29.71,11,2,20,0.00
2013-5-17,67.5,53.4,39.2,45.5,41.5,34.6,94,67,30,30.22,29.99,4,0,8,0.00
2013-5-18,69.8,57.2,41.6,50.5,43.4,37.8,90,62,41,30.26,30.14,6,1,12,0.00
2013-5-19,81.1,68.1,57.6,64.3,57.5,49.7,83,70,54,30.14,29.97,6,2,12,0.00
2013-5-28,63.2,60.7,58.4,59.4,57.3,54.8,95,89,83,30.06,29.93,7,2,20,0.56
2013-5-29,82.8,71.2,59.2,69.1,63.3,57.5,97,78,52,30.00,29.88,12,2,23,0.59
2013-5-30,87.2,73.9,65.1,69.0,64.3,60.9,90,73,47,30.08,30.00,7,1,10,0.00
2013-5-31,90.5,78.5,65.9,70.5,65.4,61.6,87,66,40,30.04,29.89,6,1,12,0.00
2013-6-1,89.0,76.2,67.7,71.4,66.4,62.0,96,73,50,29.94,29.74,12,1,17,0.41
2013-6-2,77.2,69.9,57.2,68.2,62.9,51.9,97,80,52,29.86,29.65,15,3,29,0.79
2013-6-3,63.7,56.0,50.8,52.3,45.5,41.1,85,69,46,30.00,29.85,7,2,13,0.00
2013-6-4,67.1,57.2,48.8,46.8,42.6,37.2,85,60,37,30.16,30.00,7,2,14,0.00
2013-6-5,68.0,58.5,50.3,54.2,44.7,37.1,78,61,41,30.22,30.08,6,1,12,0.00
2013-6-6,58.1,55.8,53.6,56.4,52.5,45.6,96,89,66,30.09,29.84,6,2,12,1.94
2013-6-7,59.6,56.8,54.2,58.2,55.6,53.3,97,96,91,29.85,29.79,3,0,7,0.13
2013-6-8,65.5,58.3,54.7,59.4,56.1,53.9,98,93,75,30.06,29.79,4,0,7,0.05
2013-6-9,75.0,64.0,53.0,59.5,54.8,50.6,93,73,50,30.18,30.06,4,1,9,0.00
2013-6-10,70.4,65.0,62.0,63.9,59.7,54.5,95,84,72,30.11,29.69,7,2,17,0.16
2013-6-11,66.7,63.6,57.4,63.6,60.6,53.8,97,90,79,29.82,29.62,8,2,14,0.22
2013-6-12,74.4,64.5,52.6,59.5,55.6,51.1,96,74,53,29.93,29.76,5,1,8,0.00
2013-6-13,65.5,60.4,54.7,58.9,56.8,52.9,95,88,75,29.77,29.51,11,2,25,0.91
2013-6-14,74.8,63.2,51.5,61.5,56.3,50.4,97,80,57,29.95,29.77,6,2,12,0.00
2013-6-15,75.8,64.8,51.5,56.6,51.5,43.0,88,64,35,30.04,29.92,6,1,10,0.00
2013-6-16,75.8,67.2,61.6,66.8,60.0,53.2,94,78,66,29.93,29.68,7,1,15,0.20
2013-6-17,77.4,68.3,60.3,64.6,60.4,57.1,95,77,57,29.91,29.79,7,1,12,0.00
2013-6-18,69.5,60.6,52.5,57.6,51.5,46.6,93,74,46,30.01,29.88,6,1,12,0.02
2013-6-19,68.3,58.8,48.4,51.6,46.1,36.8,93,65,33,30.19,30.01,5,1,10,0.00
2013-6-20,73.3,60.6,44.8,55.7,46.4,37.6,94,64,30,30.25,30.19,4,0,7,0.00
2013-6-21,80.5,67.5,51.7,61.5,53.4,45.6,88,63,40,30.27,30.15,5,1,8,0.00
2013-6-22,85.0,73.3,58.7,74.0,65.9,54.6,95,79,53,30.16,29.98,5,0,12,0.04
2013-6-23,90.0,79.5,70.1,75.9,69.9,65.3,94,74,50,30.04,29.95,6,1,14,0.02
2013-6-24,87.2,79.6,71.0,72.2,67.1,63.1,84,67,46,30.00,29.90,7,2,15,0.00
2013-6-25,83.0,75.6,67.9,72.5,67.1,64.0,93,75,62,29.92,29.76,10,2,14,0.17
2013-6-26,85.0,74.3,67.8,71.8,67.5,63.4,93,80,61,29.80,29.75,6,1,10,0.03
2013-6-27,81.0,72.9,64.4,72.6,67.6,62.3,94,84,69,29.79,29.59,6,0,8,0.07
2013-6-28,66.9,64.3,61.4,65.7,62.6,59.8,96,94,91,29.60,29.50,3,1,7,0.42
2013-6-29,77.3,66.4,61.7,66.7,62.5,60.5,97,88,65,29.68,29.49,4,0,7,0.75
2013-6-30,75.9,68.7,59.8,67.4,63.1,58.7,97,83,67,29.92,29.67,5,0,8,0.00
2013-7-1,67.2,64.6,60.7,63.7,62.0,58.4,96,91,84,30.03,29.91,5,1,12,0.38
2013-7-2,74.7,66.6,60.9,68.8,63.5,58.8,96,90,79,30.09,30.00,5,0,9,0.10
2013-7-3,84.4,72.5,64.3,75.8,68.6,63.2,97,88,70,30.13,30.06,3,0,9,0.36
2013-7-4,87.0,75.1,69.3,74.1,70.4,68.1,97,86,56,30.15,30.07,5,1,8,0.84
2013-7-5,85.5,76.4,70.1,75.8,71.3,67.7,96,85,67,30.12,30.03,4,0,8,0.08
2013-7-6,86.9,76.8,68.6,72.6,68.1,64.9,92,76,50,30.12,30.00,5,0,7,0.00
2013-7-7,84.1,77.5,72.0,72.3,68.6,65.5,93,75,62,30.03,29.90,9,2,12,0.51
2013-7-8,83.5,75.2,70.8,74.4,69.5,65.4,92,83,68,30.02,29.94,5,1,9,0.01
2013-7-9,84.5,75.3,69.6,73.7,70.3,67.8,96,85,59,30.02,29.87,6,0,12,0.09
2013-7-10,86.9,77.7,70.4,74.8,70.7,64.2,96,80,64,29.87,29.67,9,2,22,0.01
2013-7-11,77.4,69.6,62.6,66.2,61.5,58.0,94,76,61,30.00,29.79,5,2,12,0.00
2013-7-12,75.5,67.5,60.6,67.4,62.5,59.3,97,85,64,30.17,30.00,4,0,6,0.00
2013-7-13,81.7,72.2,61.6,71.4,66.7,60.3,97,84,68,30.23,30.14,5,1,9,0.00
2013-7-14,87.7,77.5,67.6,76.4,70.1,66.1,96,79,59,30.28,30.22,5,0,8,0.00
2013-7-15,87.5,78.5,70.0,75.8,70.0,63.5,95,77,47,30.27,30.19,4,0,7,0.00
2013-7-16,88.7,78.5,67.1,72.2,68.2,64.0,94,73,51,30.26,30.17,5,0,7,0.00
2013-7-17,93.9,82.7,71.1,80.9,73.3,67.7,91,74,52,30.20,30.03,6,1,14,0.00
2013-7-18,91.7,82.2,74.0,80.3,74.9,69.0,92,79,66,30.06,29.91,11,1,23,0.69
2013-7-19,92.3,82.3,70.0,77.3,71.6,65.5,91,72,49,29.91,29.68,12,3,23,0.16
2013-7-20,81.5,72.9,65.9,70.4,65.4,57.5,96,79,46,29.86,29.68,6,1,13,0.46
2013-7-21,75.0,67.9,60.3,64.2,60.4,56.7,95,78,60,30.00,29.86,5,1,9,0.00
2013-7-22,80.0,69.0,58.0,68.5,62.1,56.5,96,80,58,29.99,29.76,5,1,7,0.10
2013-7-23,84.6,74.3,67.6,71.0,66.6,58.6,96,79,50,29.76,29.57,8,1,15,0.02
2013-7-24,68.4,61.9,53.4,60.5,53.1,48.3,91,73,56,30.04,29.67,7,2,13,0.00
2013-7-25,73.3,62.1,50.0,57.7,52.7,48.1,95,74,42,30.12,30.04,6,1,8,0.00
2013-7-26,78.2,64.4,51.4,60.2,54.8,49.9,96,73,40,30.12,30.00,5,0,8,0.00
2013-7-27,81.0,70.0,58.8,68.7,62.0,54.1,94,77,57,30.00,29.80,4,1,9,0.12
2013-7-28,72.7,67.4,59.2,66.8,62.9,57.4,95,86,67,29.96,29.79,4,1,8,0.10
2013-7-29,72.7,64.5,56.7,59.9,56.6,50.8,94,77,50,30.12,29.96,7,1,12,0.00
2013-7-30,75.3,65.9,56.2,63.4,58.5,54.0,94,78,60,30.18,30.11,5,1,9,0.00
2013-8-1,77.2,72.1,66.8,69.4,64.8,62.1,92,78,62,29.83,29.75,7,2,12,0.02
2013-8-2,77.2,66.3,59.3,65.2,61.4,58.2,97,85,60,29.88,29.81,4,0,7,0.43
2013-8-3,75.8,68.0,61.5,62.9,59.5,53.4,96,76,48,29.90,29.80,8,2,14,0.24
2013-8-4,71.2,65.3,59.9,60.7,56.2,51.7,89,73,54,30.03,29.90,9,2,16,0.00
2013-8-5,75.0,63.7,52.4,59.3,54.5,49.6,95,74,47,30.10,30.01,4,1,7,0.00
2013-8-6,79.8,66.7,54.3,62.7,57.0,51.9,93,73,41,30.05,29.97,4,0,8,0.00
2013-8-7,82.3,73.0,64.2,68.8,64.3,59.4,85,75,61,29.98,29.85,5,1,12,0.00
2013-8-8,81.2,73.5,67.0,72.6,68.4,63.9,95,84,69,29.94,29.87,7,0,12,0.13
2013-8-9,77.0,70.5,66.2,70.1,66.7,60.1,97,88,64,29.90,29.83,5,1,8,0.85
2013-8-10,71.6,65.1,55.4,61.2,56.6,49.7,95,75,48,30.08,29.90,7,1,12,0.00
2013-8-11,76.3,64.2,53.2,61.7,56.5,51.5,96,78,54,30.12,30.02,4,0,7,0.00
2013-8-12,79.0,68.1,59.0,65.1,60.5,56.4,92,78,53,30.04,29.84,3,0,7,0.00
2013-8-13,72.7,66.1,59.5,67.1,60.2,49.1,96,82,61,29.85,29.72,10,2,16,0.41
2013-8-14,69.2,60.5,54.4,54.9,51.6,48.8,91,74,51,30.07,29.82,8,3,17,0.00
2013-8-15,74.1,62.4,49.8,57.7,52.0,48.0,95,71,47,30.12,30.05,7,1,13,0.00
2013-8-16,79.2,64.5,52.4,61.1,55.4,50.6,94,75,48,30.19,30.10,4,0,7,0.00
2013-8-17,79.3,67.0,55.4,63.3,58.0,53.7,95,75,47,30.29,30.19,4,0,7,0.00
2013-8-18,81.5,68.2,58.0,65.1,59.8,55.4,94,77,45,30.24,30.09,4,0,7,0.00
2013-8-19,82.5,69.2,59.1,68.4,61.7,57.6,95,79,50,30.10,30.00,4,0,8,0.00
2013-8-20,85.3,71.8,60.0,67.3,61.4,57.3,92,72,43,30.11,30.03,6,1,12,0.00
2013-8-21,87.3,73.2,61.3,68.1,63.4,59.0,93,74,47,30.14,29.99,4,0,8,0.00
2013-8-22,83.3,73.7,65.3,72.0,66.1,58.1,90,78,61,30.01,29.86,9,1,14,0.02
2013-8-23,73.0,65.1,55.4,61.7,58.2,53.6,95,79,57,30.20,29.96,5,1,9,0.00
2013-8-24,75.7,63.2,52.8,58.1,53.3,48.1,96,74,42,30.35,30.20,5,0,8,0.01
2013-8-25,83.3,68.3,51.5,64.4,56.0,49.9,96,68,40,30.33,30.11,7,1,12,0.01
2013-8-26,77.7,70.1,64.9,70.6,66.1,61.1,96,88,72,30.12,29.90,6,1,12,1.31
2013-8-27,80.7,70.9,67.0,73.0,68.6,66.1,97,93,74,29.93,29.89,4,0,5,0.00
2013-8-28,82.3,76.6,68.8,73.5,70.7,67.5,97,83,71,29.93,29.84,4,1,7,0.03
2013-8-29,81.6,71.9,64.7,73.1,68.1,63.8,98,89,60,30.03,29.92,4,0,7,0.00
2013-8-30,86.0,73.6,63.3,72.9,66.8,62.1,97,81,52,29.99,29.74,4,0,8,0.01
2013-8-31,78.8,72.7,67.8,73.3,69.6,66.0,96,90,78,29.84,29.69,6,1,10,0.33
2013-9-1,79.3,72.0,67.2,71.4,68.2,66.1,97,88,75,29.83,29.73,6,1,12,0.36
2013-9-2,83.5,72.1,64.9,73.5,67.8,58.2,97,87,69,29.76,29.64,8,1,13,0.10
2013-9-3,66.8,64.4,61.8,60.0,57.8,55.9,86,79,71,29.92,29.75,8,2,14,0.01
2013-9-4,77.7,67.1,54.2,63.9,56.7,49.9,94,71,41,29.97,29.92,10,2,17,0.00
2013-9-5,66.4,60.1,49.3,60.3,49.7,40.3,91,70,44,30.21,29.95,7,1,12,0.00
2013-9-6,71.0,56.7,43.7,54.3,47.6,41.4,93,74,46,30.28,30.09,4,0,9,0.00
2013-9-7,65.5,59.5,53.0,60.5,54.7,48.6,92,84,72,30.09,29.85,4,0,6,0.06
2013-9-8,65.8,60.4,48.6,63.9,51.7,44.1,96,75,48,30.11,29.84,5,1,12,0.08
2013-9-9,77.7,60.5,44.8,64.0,52.4,42.9,95,77,50,30.16,29.95,5,0,10,0.00
2013-9-10,91.3,78.8,67.0,77.8,70.4,61.4,94,76,59,29.97,29.87,10,2,15,0.30
2013-9-11,92.0,82.4,75.2,76.2,72.5,66.4,88,73,53,30.00,29.86,7,1,12,0.00
2013-9-12,75.2,69.5,62.5,69.3,65.8,58.6,95,88,72,29.90,29.69,9,1,13,0.10
2013-9-13,62.5,55.2,50.9,59.7,52.1,46.2,95,89,83,30.00,29.72,6,1,12,0.74
2013-9-14,60.9,52.6,45.0,50.5,45.0,41.4,89,76,54,30.12,29.99,6,1,10,0.00
2013-9-15,68.5,56.6,45.8,56.2,48.8,42.2,92,76,58,30.16,30.04,7,1,14,0.07
2013-9-16,54.5,50.8,42.8,53.1,48.1,41.2,96,91,73,30.38,30.06,4,0,9,0.18
2013-9-17,42.8,42.8,42.8,41.2,41.2,41.2,94,94,94,30.38,30.38,0,0,9,0.18
2013-9-18,42.8,42.8,42.8,41.2,41.2,41.2,94,94,94,30.38,30.38,0,0,9,0.18
2013-9-19,42.8,42.8,42.8,41.2,41.2,41.2,94,94,94,30.38,30.38,0,0,9,0.18
2013-9-20,82.9,65.7,42.8,66.6,56.7,41.2,94,74,54,30.38,29.76,4,1,12,0.18
2013-9-21,71.9,63.7,54.4,62.7,59.9,52.3,96,88,68,29.76,29.61,10,1,18,0.94
2013-9-22,54.7,52.5,50.6,52.3,46.1,41.8,93,79,63,30.01,29.70,8,2,15,0.00
2013-9-23,57.1,50.8,42.4,45.3,43.0,40.6,95,75,61,30.15,30.01,6,1,10,0.00
2013-9-24,61.8,49.3,39.5,49.9,43.7,38.4,97,83,50,30.15,30.01,6,1,10,0.00
2013-9-25,67.1,52.8,42.0,55.0,46.3,40.7,96,81,49,30.02,29.96,4,0,7,0.01
2013-9-26,68.3,54.6,43.4,58.4,49.7,42.6,97,85,62,30.15,30.00,5,0,7,0.00
2013-9-27,65.4,54.4,45.5,56.9,50.7,44.4,97,88,68,30.26,30.15,3,0,8,0.00
2013-9-28,73.0,58.1,46.1,59.7,52.2,45.0,97,82,59,30.31,30.18,4,1,10,0.01
2013-9-29,76.0,61.0,49.7,59.4,52.2,46.8,93,75,48,30.18,29.99,6,1,9,0.00
2013-9-30,76.0,63.3,53.3,64.3,56.7,49.8,91,79,62,30.01,29.93,4,0,6,0.00
2013-10-1,75.0,65.7,58.0,63.0,59.1,55.8,96,80,61,30.01,29.90,4,0,8,0.00
2013-10-2,74.3,66.2,57.4,64.9,59.9,53.1,92,81,53,30.08,29.90,5,1,10,0.00
2013-10-3,72.6,59.5,48.8,58.4,51.9,43.5,97,79,38,30.13,30.01,3,0,5,0.00
2013-10-4,64.5,61.3,58.5,63.3,58.6,53.4,96,91,80,30.07,29.98,4,0,7,0.36
2013-10-5,62.7,60.5,59.4,59.4,57.5,55.5,93,90,82,30.10,30.03,4,0,8,0.00
2013-10-6,68.2,62.3,60.2,66.7,60.8,58.3,96,95,92,30.03,29.89,4,0,7,0.38
2013-10-7,59.8,55.6,50.7,57.7,50.2,46.7,94,82,68,30.02,29.66,11,3,20,0.47
2013-10-8,61.7,52.4,42.7,49.2,45.8,40.6,96,80,56,30.36,30.02,6,1,12,0.00
2013-10-9,65.0,52.0,40.0,54.1,46.2,38.7,97,82,50,30.42,30.28,4,0,6,0.01
2013-10-10,65.2,51.9,39.4,50.7,44.1,37.8,96,77,47,30.29,30.19,4,0,6,0.00
2013-10-11,61.3,50.2,44.6,54.2,48.1,43.4,96,93,77,30.14,30.12,3,0,7,0.00
2013-10-12,73.8,55.9,41.9,53.0,44.9,37.3,97,73,28,30.20,30.13,6,1,10,0.01
2013-10-13,72.3,62.5,56.0,61.1,55.7,44.6,95,79,60,30.27,30.19,5,1,12,0.06
2013-10-14,62.3,55.9,45.1,59.2,52.6,43.6,96,89,69,30.33,30.24,3,1,9,0.16
2013-10-15,69.1,55.0,41.2,57.7,50.3,40.4,97,85,64,30.29,29.95,6,1,10,0.00
2013-10-16,67.0,61.2,57.5,59.3,54.9,49.7,94,80,65,29.95,29.75,5,1,9,0.16
2013-10-17,64.9,56.3,49.2,54.0,50.0,45.8,96,80,56,29.87,29.65,6,1,10,0.31
2013-10-18,59.7,52.4,46.0,52.3,44.4,37.2,95,76,46,29.90,29.70,8,2,21,0.05
2013-10-19,64.5,54.4,44.5,48.0,44.2,40.8,89,70,48,29.90,29.62,12,1,18,0.04
2013-10-20,53.8,47.3,40.9,44.5,40.8,37.3,91,79,58,29.99,29.73,8,2,14,0.00
2013-10-21,66.8,55.0,44.6,49.9,41.9,38.6,92,64,36,29.99,29.79,7,1,14,0.00
2013-10-22,53.6,46.5,39.8,48.6,37.0,27.1,95,71,45,29.85,29.72,12,3,20,0.17
2013-10-23,46.1,40.7,35.1,39.5,35.0,28.8,86,80,66,29.83,29.70,5,1,10,0.01
2013-10-24,39.6,34.4,34.4,36.3,32.0,32.0,91,91,88,30.01,29.80,0,0,1,0.01
2013-10-25,44.7,39.7,39.6,36.9,36.3,36.3,88,88,74,30.18,30.01,4,0,7,0.02
2013-10-26,44.7,44.5,44.5,33.8,33.7,33.3,66,66,64,29.80,29.80,12,4,24,0.01
2013-10-27,44.5,44.5,44.5,33.8,33.8,33.8,66,66,66,29.80,29.80,4,4,24,0.01
2013-10-28,47.3,44.3,40.3,38.9,35.9,34.6,81,73,66,30.27,30.06,7,1,10,0.01
2013-10-29,47.2,44.1,35.3,36.4,33.3,28.1,81,66,56,30.49,30.27,7,1,10,0.00
2013-10-30,47.5,40.2,35.7,42.2,34.7,30.4,83,81,80,30.37,30.17,2,0,7,0.06
2013-10-31,66.0,62.4,57.3,59.4,57.7,55.5,94,85,74,29.82,29.52,5,2,8,0.38
2013-11-1,61.1,57.4,49.8,57.7,50.5,43.7,91,79,56,29.66,29.29,18,6,21,0.54
2013-11-2,49.8,49.8,49.8,47.0,47.0,47.0,90,90,90,29.66,29.66,1,1,21,0.54
2013-11-3,49.8,42.8,33.0,47.0,36.5,23.3,90,79,59,30.51,29.66,3,1,21,0.00
2013-11-4,41.3,38.8,36.9,21.9,19.4,16.1,52,46,36,30.67,30.54,6,1,12,0.00
2013-11-5,56.6,46.0,36.9,37.1,28.3,20.9,52,50,46,30.55,30.42,2,1,12,0.00
2013-11-6,56.6,56.6,56.6,37.1,37.1,37.1,48,48,48,30.42,30.42,1,1,12,0.00
2013-11-7,41.1,40.4,40.3,33.1,32.7,31.7,75,74,69,29.98,29.97,9,3,16,0.29
2013-11-8,41.0,40.2,38.3,32.7,32.5,26.5,76,74,56,30.23,29.98,5,3,16,0.01
2013-11-9,47.7,42.1,35.4,41.4,32.1,28.9,79,68,55,30.22,29.77,3,2,16,0.03
2013-11-10,45.7,45.1,45.0,40.8,40.8,40.8,85,85,83,29.79,29.79,1,1,16,0.04
2013-11-11,45.2,39.8,38.9,40.8,36.5,33.3,90,88,64,30.02,29.79,10,4,18,0.18
2013-11-12,32.2,30.0,27.0,27.6,23.6,20.0,91,77,64,30.38,30.10,9,2,15,0.18
2013-11-13,34.7,30.8,28.3,22.0,21.8,21.4,77,69,58,30.38,30.34,1,1,15,0.00
2013-11-14,46.0,39.9,34.7,29.3,22.0,16.2,59,50,30,30.34,30.01,10,3,15,0.00
2013-11-15,45.6,45.6,45.6,17.4,17.4,17.4,32,32,32,30.01,30.01,1,1,15,0.00
2013-11-16,45.6,45.6,45.6,17.4,17.4,17.4,32,32,32,30.01,30.01,1,1,15,0.00
2013-11-17,50.4,50.4,50.4,41.3,41.3,41.3,71,71,71,30.04,30.04,0,0,4,0.00
2013-11-18,50.4,50.4,50.4,41.3,41.3,41.3,71,71,71,30.04,30.04,0,0,4,0.00
2013-11-19,50.4,50.4,50.4,41.3,41.3,41.3,71,71,71,30.04,30.04,0,0,4,0.00
2013-11-20,50.4,46.2,37.3,41.3,34.1,18.9,71,63,47,30.56,30.04,2,1,4,0.00
2013-11-21,37.3,37.3,37.3,18.9,18.9,18.9,47,47,47,30.56,30.56,2,2,4,0.00
2013-11-22,40.7,40.5,40.0,39.4,38.7,37.0,95,93,89,30.27,30.15,0,0,0,0.18
2013-11-23,40.7,37.8,23.0,39.4,35.9,17.7,95,93,80,30.15,30.11,0,0,10,0.18
2013-11-24,18.8,18.8,18.6,12.5,12.3,11.1,76,75,72,30.25,30.17,6,5,10,0.18
2013-11-25,34.4,19.5,18.8,12.5,12.4,11.4,76,74,38,30.25,30.14,6,6,10,0.00
2013-11-26,36.5,34.5,34.4,27.6,12.2,11.4,70,40,38,30.14,30.12,3,3,10,0.00
2013-11-27,36.5,34.8,30.4,27.6,26.3,22.8,77,71,70,30.12,29.70,4,2,10,0.29
2013-11-28,30.4,29.8,20.9,22.8,22.4,16.3,82,74,73,30.43,29.72,7,4,10,0.00
2013-11-29,21.9,21.6,20.9,16.7,16.6,16.3,82,81,80,30.56,30.43,7,2,10,0.00
2013-11-30,21.9,21.9,21.9,16.7,16.7,16.7,80,80,80,30.56,30.56,0,0,10,0.00
2013-12-4,43.4,42.5,41.4,38.6,38.2,37.5,86,85,83,29.96,29.93,3,1,5,0.00
2013-12-5,61.6,48.6,43.4,53.6,43.0,38.6,83,81,75,29.93,29.74,3,2,5,0.01
2013-12-9,40.9,38.4,36.4,35.8,33.4,29.4,89,82,74,29.93,29.85,13,4,20,0.06
2013-12-10,24.9,24.1,22.3,19.6,14.4,10.5,89,67,56,29.97,29.92,7,4,12,0.06
2013-12-11,22.3,22.3,22.3,19.6,19.6,19.6,89,89,89,29.96,29.95,3,3,12,0.00
2013-12-13,19.7,17.3,15.8,16.7,10.4,5.8,88,74,61,30.42,30.19,5,2,25,0.00
2013-12-17,26.8,24.2,17.4,22.9,20.5,15.2,91,86,77,29.98,29.93,13,1,25,0.00
2013-12-18,31.7,28.1,24.3,23.8,21.6,19.4,91,77,64,30.08,29.93,9,2,14,0.00
2013-12-19,42.3,34.9,26.4,32.8,26.4,17.3,87,71,59,30.06,29.91,10,2,17,0.09
2013-12-20,43.9,38.3,34.1,41.2,36.0,31.3,96,92,83,30.02,29.79,2,0,9,0.23
2013-12-21,53.4,37.8,31.1,50.9,36.6,29.8,97,95,84,29.91,29.72,7,1,12,0.79
2013-12-22,44.7,35.3,31.1,41.8,33.8,29.8,97,94,86,29.97,29.58,10,2,14,0.61
2013-12-23,41.2,35.0,26.9,37.3,31.7,23.4,93,88,80,30.26,29.95,9,2,13,0.00
2013-12-24,26.9,20.0,10.8,23.5,16.9,6.8,91,88,82,30.51,30.23,8,2,12,0.00
2013-12-25,24.4,14.8,3.5,15.3,9.1,0.9,91,78,65,30.56,30.24,5,1,9,0.00
2013-12-26,31.6,27.3,23.4,27.4,20.4,15.1,89,75,67,30.28,30.08,9,2,16,0.00
2013-12-27,32.4,27.3,21.5,27.0,21.8,13.6,90,80,70,30.30,30.10,7,2,12,0.00
2013-12-28,43.4,37.0,28.8,34.5,30.3,25.8,94,77,61,30.10,29.94,9,3,20,0.07
2013-12-29,46.3,40.5,28.5,40.0,33.2,25.6,94,76,55,29.94,29.61,9,1,17,0.06
2013-12-30,28.4,18.4,13.7,25.6,13.6,8.9,89,81,71,30.24,29.76,10,3,21,0.00
2013-12-31,24.7,18.0,14.3,18.5,10.4,3.3,82,72,57,30.25,29.98,16,4,28,0.00
2014-1-1,20.2,16.9,13.2,13.7,10.1,6.4,88,75,60,30.43,30.25,9,2,15,0.00
2014-1-2,14.8,11.6,6.7,12.4,9.0,3.9,90,89,86,30.34,30.03,10,3,15,0.00